Location: Colorado Springs
(38.8340°N, 104.8210°W)
Time: 13:36:41
(UTC-06:00)

Vanguard 2 Rocket - Visible Passes

Search period start: 21 October 2017 00:00
Search period end: 31 October 2017 00:00
Orbit: 555 x 3327 km, 32.9° (Epoch: 20 October)

Date Brightness Start Highest point End Pass type
(mag) Time Alt. Az. Time Alt. Az. Time Alt. Az.
21 Oct 10.7 19:35:43 10° WSW 19:45:22 23° SSW 19:58:00 10° S visible
22 Oct 10.5 18:35:15 10° W 18:44:39 28° SSW 18:58:09 10° SSE visible
23 Oct 11.1 19:53:36 10° WSW 19:59:50 14° SW 20:07:08 10° S visible
24 Oct 10.8 18:51:36 10° WSW 18:59:11 19° SSW 19:09:03 10° S visible
26 Oct 11.2 19:12:39 10° SW 19:13:48 10° SSW 19:15:00 10° SSW visible
